GAOFEN 6 (43484 NORAD) Tracking and Keplerian Element Data

This shows tracking and keplerian element data for the satellite.

Feedback or suggestion? Click here.




ElementValue
Catalog43484
NameGAOFEN 6
Epoch Orbit5193
Epoch Day140.14895621
Epoch Year2019
RAAN218.4884
Inclination98.0168
Eccentricity0.0008669
Argument of Perigee218.3306
Mean Anonmoly141.7301
Mean Motion14.76473989
Decay Rate7.4E-07
L11 43484U 18048A 19140.14895621 .00000074 00000-0 17991-4 0 9997
L22 43484 98.0168 218.4884 0008669 218.3306 141.7301 14.76473989 51937

Live tracking and technical data element details for GAOFEN 6 (NORAD 43484). GAOFEN 6 can be tracked NOW for your location showing map with azimuth and elevation plus other details from your city location.

Track the satellite on the map from your city or location and see movement details for azimuth, elevation, latitude, longitude, range, height, and movement on the map or in text.







IsCatalogInMostPopularTable: catalog: 43484, numindb: 112
Update: records affected: 1



GetName: 43484 GAOFEN 6

Hit Count: updated at: Tue, 21 May 2019 21:07:01 GMT